DateTimeUTC,F1_A11,F1_S11,BsB_S11,BsG_S11,BsR_S11,BbsB_S11,BbsG_S11,BbsR_S11,BaB_A11,BaG_A11,BaR_A11,Tu_S11,T_S11,Uu_S11,U_S11,P_S11,T1_A11
2021-11-25T17:00:00Z,00000200,21000000,,,,,,,-000.16,-000.07,-000.03,19.0,26.0,,00.0,0645.1,30.9
2021-11-25T17:01:00Z,00000200,21000000,,,,,,,-000.08,-000.05,-000.16,19.0,26.0,,00.0,0645.1,30.9
2021-11-25T17:02:00Z,00000200,21000000,,,,,,,-000.28,0000.16,-000.07,19.0,26.0,,00.0,0645.1,30.9
2021-11-25T17:03:00Z,00000200,61000000,,,,,,,0000.11,-000.50,0000.20,19.1,26.0,,00.0,0645.1,30.9
2021-11-25T17:04:00Z,00000200,41000000,0000.12,0000.64,-000.10,0000.23,0000.08,0000.18,-000.15,0000.24,-000.09,19.4,26.0,,00.0,0646.1,30.9
2021-11-25T17:05:00Z,00000200,01000000,-000.75,0000.37,-000.15,0000.24,0000.28,0000.30,0000.05,0000.00,-000.05,19.5,26.0,,00.0,0646.1,31.0
2021-11-25T17:06:00Z,00000200,01000000,-000.26,0000.47,0000.26,-000.42,0000.33,-000.39,-000.04,-000.08,-000.24,19.6,26.0,,00.0,0646.1,30.9
2021-11-25T17:07:00Z,00000200,01000000,-000.40,0000.47,-000.01,-000.11,0000.10,0000.20,0000.39,0000.09,0000.14,19.5,26.0,,00.0,0646.1,30.9
2021-11-25T17:08:00Z,00000200,01000000,0000.53,0000.23,0000.10,0000.14,0000.06,-000.08,-000.21,0000.26,0000.47,19.4,26.0,,00.0,0646.1,30.9
2021-11-25T17:09:00Z,00000200,01000000,-000.36,0000.27,0000.08,0000.30,0000.26,-000.04,-000.05,-000.60,-000.24,19.3,25.9,,00.0,0646.1,30.9
2021-11-25T17:10:00Z,00000200,01000000,-000.36,0000.30,-000.14,-000.01,-000.02,-000.03,-000.09,0000.51,0000.10,19.3,25.9,,00.0,0646.1,30.8
2021-11-25T17:11:00Z,00000200,01000000,-000.02,0000.26,-000.17,0000.32,0000.33,-000.43,0000.51,-000.16,0000.14,19.2,25.8,,00.0,0646.0,30.9
2021-11-25T17:12:00Z,00000200,01000000,0000.98,0000.45,-000.06,0000.36,0000.28,0000.12,-000.04,0000.46,0000.03,19.2,25.8,,00.0,0646.0,30.9
2021-11-25T17:13:00Z,00000200,01000000,-000.53,0000.60,-000.00,-000.00,0000.32,-000.16,-000.08,-000.00,0000.02,19.2,25.8,,00.0,0646.0,30.9
2021-11-25T17:14:00Z,00000200,01000000,-000.07,0000.42,-000.19,0000.30,-000.07,-000.30,0000.45,0000.27,-000.04,19.3,25.8,,00.0,0646.0,30.9
2021-11-25T17:15:00Z,00000200,01000000,-000.60,0000.34,0000.22,-000.03,0000.14,0000.02,0000.06,-000.33,0000.31,19.3,25.9,,00.0,0646.1,30.9
2021-11-25T17:16:00Z,00000200,01000000,0000.15,0000.30,-000.35,0000.29,-000.15,-000.27,0000.28,0000.45,-000.33,19.4,25.9,,00.0,0646.1,30.9
2021-11-25T17:17:00Z,00000200,01000000,0000.50,0000.27,0000.34,0000.85,-000.05,0000.29,-000.04,0000.13,0000.50,19.4,25.9,,00.0,0646.0,30.9
2021-11-25T17:18:00Z,00000200,01000000,-000.33,0000.13,0000.09,-000.64,0000.39,-000.06,-000.21,-000.23,-000.06,19.5,26.0,,00.0,0646.0,30.9
2021-11-25T17:19:00Z,00000200,01000000,-000.22,0000.65,0000.01,0000.13,0000.03,0000.00,0000.31,0000.04,-000.10,19.5,26.0,,00.0,0646.0,31.0
2021-11-25T17:20:00Z,00000200,01000000,-000.65,0000.31,0000.22,0000.04,0000.41,0000.33,-000.14,0000.05,0000.01,19.5,26.0,,00.0,0646.0,30.9
2021-11-25T17:21:00Z,00000200,01000000,0000.11,0000.21,0000.00,-000.11,0000.46,0000.03,0000.17,0000.33,0000.23,19.4,26.0,,00.0,0646.0,30.9
2021-11-25T17:22:00Z,00000200,01000000,-000.11,0000.33,-000.28,0000.12,0000.10,-000.23,-000.14,-000.09,-000.18,19.3,25.9,,00.0,0645.9,30.9
2021-11-25T17:23:00Z,00000200,01000000,-000.74,0000.24,0000.08,0000.47,0000.17,-000.09,-000.07,-000.08,-000.02,19.3,25.9,,00.0,0646.0,30.9
2021-11-25T17:24:00Z,00000200,01000000,-000.39,0000.62,-000.01,0000.00,0000.39,0000.01,0000.21,-000.03,0000.07,19.2,25.8,,00.0,0646.0,30.8
2021-11-25T17:25:00Z,00000200,01000000,-000.40,0000.25,0000.13,0000.44,-000.02,0000.11,-000.01,0000.33,0000.13,19.1,25.8,,00.0,0646.0,30.8
2021-11-25T17:26:00Z,00000200,01000000,-000.04,0000.57,-000.05,0000.38,0000.10,0000.01,-000.08,-000.19,-000.07,19.1,25.7,,00.0,0646.0,30.8
2021-11-25T17:27:00Z,00000200,01000000,-000.66,0000.32,-000.15,-000.30,0000.11,-000.20,0000.22,0000.14,0000.08,19.1,25.7,,00.0,0646.1,30.8
2021-11-25T17:28:00Z,00000200,01000000,0000.30,0000.24,-000.14,0000.12,0000.05,-000.30,-000.01,0000.15,-000.08,19.1,25.7,,00.0,0646.1,30.9
2021-11-25T17:29:00Z,00000200,01000000,-000.68,0000.23,0000.03,0000.30,0000.38,-000.05,0000.25,0000.11,0000.39,19.1,25.7,,00.0,0646.1,30.9
2021-11-25T17:30:00Z,00000200,01000000,0000.16,0000.20,-000.29,0000.64,0000.11,-000.23,-000.02,0000.01,-000.06,19.2,25.8,,00.0,0646.1,30.9
2021-11-25T17:31:00Z,00000200,01000000,-000.01,0000.43,0000.02,0000.45,0000.27,-000.28,-000.32,0000.06,-000.19,19.2,25.8,,00.0,0646.2,30.9
2021-11-25T17:32:00Z,00000200,01000000,-000.64,0000.18,0000.23,0000.59,0000.19,-000.03,0000.26,0000.15,0000.32,19.3,25.8,,00.0,0646.3,30.9
2021-11-25T17:33:00Z,00000200,01000000,-000.24,0000.32,0000.31,-000.15,0000.05,0000.14,0000.25,-000.28,-000.24,19.3,25.8,,00.0,0646.3,30.9
2021-11-25T17:34:00Z,00000200,01000000,0000.61,0000.19,-000.03,0000.77,0000.29,-000.18,-000.12,-000.03,-000.03,19.4,25.9,,00.0,0646.4,30.9
2021-11-25T17:35:00Z,00000200,01000000,-000.10,0000.33,0000.08,-000.03,0000.16,0000.19,-000.06,-000.06,0000.17,19.4,25.9,,00.0,0646.4,30.9
2021-11-25T17:36:00Z,00000200,01000000,-000.10,0000.49,-000.14,0000.36,-000.03,-000.10,0000.34,0000.34,-000.28,19.5,25.9,,00.0,0646.5,31.0
2021-11-25T17:37:00Z,00000200,01000000,-000.10,0000.46,0000.14,-000.25,0000.13,0000.17,-000.10,-000.54,0000.11,19.6,25.9,,00.0,0646.5,30.9
2021-11-25T17:38:00Z,00000200,01000000,-000.68,0000.62,0000.32,0000.40,-000.10,0000.03,-000.57,-000.15,-000.15,19.6,26.0,,00.0,0646.5,30.9
2021-11-25T17:39:00Z,00000200,01000000,-000.64,0000.79,-000.05,-000.15,0000.12,-000.21,0000.33,0000.09,-000.03,19.5,26.0,,00.0,0646.5,30.9
2021-11-25T17:40:00Z,00000200,01000000,-000.19,-000.03,0000.40,0000.01,0000.40,-000.08,-000.23,0000.01,0000.04,19.4,25.9,,00.0,0646.5,30.9
2021-11-25T17:41:00Z,00000200,01000000,-000.51,0000.19,0000.23,-000.02,0000.29,-000.03,0000.29,0000.02,-000.38,19.3,25.8,,00.0,0646.6,30.9
2021-11-25T17:42:00Z,00000200,01000000,0000.25,0000.29,0000.04,0000.18,-000.03,0000.03,-000.25,0000.24,0000.06,19.3,25.8,,00.0,0646.6,30.9
2021-11-25T17:43:00Z,00000200,01000000,-000.17,0000.32,0000.01,-000.17,0000.15,-000.09,0000.38,-000.13,0000.17,19.4,25.9,,00.0,0646.6,30.9
2021-11-25T17:44:00Z,00000200,01000000,-000.30,0000.25,0000.13,-000.47,-000.21,0000.08,-000.23,-000.22,-000.20,19.4,25.9,,00.0,0646.6,30.9
2021-11-25T17:45:00Z,00000200,01000000,-000.29,-000.00,0000.07,0000.06,0000.10,0000.02,0000.02,0000.24,0000.30,19.4,25.9,,00.0,0646.7,30.9
2021-11-25T17:46:00Z,00000200,01000000,0000.46,0000.75,0000.38,-000.31,0000.05,-000.12,0000.11,-000.08,-000.07,19.5,25.9,,00.0,0646.7,30.9
2021-11-25T17:47:00Z,00000200,01000000,0000.26,0000.43,-000.14,0000.44,0000.15,-000.27,-000.12,0000.23,0000.17,19.5,25.9,,00.0,0646.8,30.9
2021-11-25T17:48:00Z,00000200,01000000,0000.00,0000.15,0000.27,-000.22,0000.46,-000.17,0000.07,0000.05,-000.05,19.6,26.0,,00.0,0646.8,30.9
2021-11-25T17:49:00Z,00000200,01000000,0000.93,0000.62,-000.23,-000.03,0000.09,-000.36,-000.38,-000.49,-000.27,19.6,26.0,,00.0,0646.9,30.9
2021-11-25T17:50:00Z,00000200,01000000,0000.04,0000.46,-000.08,0000.34,0000.36,-000.25,0000.11,0000.12,0000.00,19.5,26.0,,00.0,0646.9,31.0
2021-11-25T17:51:00Z,00000200,01000000,-000.17,0000.03,0000.04,0000.35,0000.20,-000.14,0000.25,-000.00,0000.15,19.5,25.9,,00.0,0646.9,30.9
2021-11-25T17:52:00Z,00000200,01000000,0000.22,0000.35,-000.08,0000.71,0000.26,-000.30,0000.02,-000.02,-000.33,19.4,25.9,,00.0,0646.9,30.9
2021-11-25T17:53:00Z,00000200,01000000,-000.33,0000.57,-000.29,0000.26,0000.43,0000.01,-000.15,-000.46,0000.34,19.3,25.9,,00.0,0646.9,30.8
2021-11-25T17:54:00Z,00000200,01000000,0000.53,0000.25,0000.10,-000.39,0000.09,0000.05,-000.00,0000.28,-000.10,19.2,25.8,,00.0,0646.9,30.8
2021-11-25T17:55:00Z,00000200,01000000,-000.12,0000.70,-000.21,0000.40,0000.46,0000.02,0000.01,0000.22,-000.24,19.1,25.8,,00.0,0646.9,30.8
2021-11-25T17:56:00Z,00000200,01000000,-000.49,0000.32,-000.05,-000.51,0000.38,-000.05,0000.26,-000.07,0000.28,19.1,25.7,,00.0,0646.9,30.8
2021-11-25T17:57:00Z,00000200,41000000,,,,,,,0000.71,0000.74,0000.49,19.1,25.7,,00.0,0646.9,30.8
2021-11-25T17:58:00Z,00000200,61000000,,,,,,,-000.23,0000.14,-000.19,18.8,25.8,,00.0,0646.1,30.8
2021-11-25T17:59:00Z,00000200,21000000,,,,,,,-000.03,-000.55,-000.08,18.8,25.9,,00.0,0646.1,30.8
